User: anonymous   Login
Location: Unspecified
(0.0000°N, 0.0000°E)
Time: 19:14:21
(UTC+00:00)
Language:

STARLINK-5918 - Orbit

View from above orbital plane
View from above orbital plane
View from above satellite
View from above satellite

Ground track
Ground track

The orbit is defined by the following mean orbital elements,

1 55939U          26145.54831691 +.00000000 +00000-0 +80110-4 0 00003
2 55939  69.9998  90.6402 0003417 263.1655  96.9115 14.98316568    09
Epoch (UTC): 25 May 2026 13:09:34
Eccentricity: 0.0003417
inclination: 69.9998°
perigee height: 570 km
apogee height: 574 km
right ascension of ascending node: 90.6402°
argument of perigee: 263.1655°
revolutions per day: 14.98316568
mean anomaly at epoch: 96.9115°

The dashed part of the orbit path shows where the satellite is in the earth's shadow,  

DLR